Flag for U.S.A. Weather past 2 weeks in Lexington-Fayette, Kentucky, U.S.A.

Now
32 °F

Mostly cloudy.


Feels Like: 20 °F
Forecast: 22 / 36 °F
Wind: 20 mph from North

Location: Blue Grass Airport

Current Time: Jan 30, 2015 at 12:21:44 PM

Latest Report: Jan 30, 2015 at 11:54 AM


Visibility: 10 mi

Pressure: 30.46 "Hg

Humidity: 56%

Dew point: 18 °F

Location of Lexington-FayetteLocation

Historic Weather in Lexington-Fayette — Graph

°F

Lexington-Fayette temperature yesterday

Maximum temperature yesterday: 53 °F (at 1:54 PM)
Minimum temperature yesterday: 33 °F (at 12:54 AM)
Average temperature yesterday: 40 °F

Past Weeks' High & Low Weather Summary

 TemperatureHumidityPressure
High56 °F (Jan 20, 2:54 PM)100% (Jan 23, 10:54 PM)30.45 "Hg (Jan 23, 10:54 PM)
Low14 °F (Jan 28, 4:54 AM)34% (Jan 17, 4:54 PM)29.65 "Hg (Jan 25, 3:54 PM)
Average35 °F74%30.06 "Hg
* Reported Jan 15 10:54 AM — Jan 30 10:54 AM, Lexington-Fayette, Weather by CustomWeather, © 2014

Note: Actual official high and low records may vary slightly from our data, if they occured in-between our weather recording intervals... More about our weather records

Advertising

Lexington-Fayette weather history for previous 24 hours

 ConditionsComfort  
Time TempWeatherWind HumidityBarometerVisibility
10:54 AM
Jan 30
31 °FMostly cloudy.16 mph67%30.45 "Hg10 mi
9:54 AM33 °FLight snow. Mostly cloudy.13 mph75%30.41 "Hg7 mi
8:54 AM32 °FLight snow. More clouds than sun.10 mph73%30.38 "Hg4 mi
7:54 AM32 °FOvercast.12 mph64%30.36 "Hg10 mi
6:54 AM32 °FMostly cloudy.9 mph79%30.34 "Hg10 mi
5:54 AM32 °FLight snow. Overcast.8 mph85%30.31 "Hg9 mi
4:54 AM33 °FOvercast.10 mph70%30.30 "Hg10 mi
3:54 AM32 °FOvercast.10 mph85%30.28 "Hg10 mi
2:54 AM33 °FOvercast.8 mph82%30.26 "Hg10 mi
1:54 AM33 °FOvercast.8 mph85%30.25 "Hg9 mi
12:54 AM33 °FMostly cloudy.9 mph88%30.25 "Hg8 mi
11:54 PM
Jan 29
33 °FOvercast.9 mph88%30.24 "Hg7 mi
10:54 PM33 °FFog.10 mph92%30.23 "Hg4 mi
9:54 PM34 °FMostly cloudy.12 mph82%30.21 "Hg9 mi
8:54 PM35 °FLight rain. Fog.16 mph85%30.18 "Hg6 mi
7:54 PM36 °FFog.13 mph82%30.16 "Hg7 mi
6:54 PM37 °FMostly cloudy.16 mph79%30.13 "Hg10 mi
5:54 PM39 °FCloudy.12 mph76%30.09 "Hg10 mi
4:54 PM41 °FMore clouds than sun.23 mph74%30.03 "Hg10 mi
3:54 PM44 °FOvercast.21 mph68%29.99 "Hg10 mi
3:04 PM48 °FMostly cloudy.17 mph68%29.94 "Hg9 mi
2:54 PM48 °FMore clouds than sun.23 mph68%29.93 "Hg10 mi
1:54 PM53 °FOvercast.14 mph59%29.90 "Hg10 mi
12:54 PM52 °FOvercast.20 mph59%29.90 "Hg10 mi
Weather by CustomWeather, © 2014

See weather overviewHow to use our weather pages